Regional Weather Roundup
Issued by NWS

Home | Current Version | Previous Version | Graphics & Text | Print | Product List | Glossary On
Versions: 1 2 3 4 5 6 7 8 9 10 11 12 13 14 15 16 17 18 19 20 21 22 23 24 25 26 27 28 29 30 31 32 33 34 35 36 37 38 39 40 41 42 43 44 45 46 47 48 49 50
053
ASUS43 KFSD 270510
RWRSD

WEATHER ROUNDUP FOR SOUTH DAKOTA
NATIONAL WEATHER SERVICE SIOUX FALLS SD
1200 AM CDT SUN MAY 27 2018

NOTE: "FAIR" INDICATES FEW OR NO CLOUDS BELOW 12,000 FEET WITH NO
SIGNIFICANT WEATHER AND/OR OBSTRUCTIONS TO VISIBILITY.


SDZ001>005-009-010-012>017-270600-
NORTHWEST AND NORTH CENTRAL SOUTH DAKOTA

CITY           SKY/WX    TMP DP  RH WIND       PRES   REMARKS
BUFFALO          N/A     72  59  63 E12       29.64F
FAITH            N/A     75  62  64 SE20      29.70F
MOBRIDGE       CLEAR     75  59  57 SE8       29.70S
$$

SDZ012>016-024>037-041>051-057-063-072>074-270600-
SOUTHWEST AND SOUTH CENTRAL SOUTH DAKOTA

CITY           SKY/WX    TMP DP  RH WIND       PRES   REMARKS
RAPID CTY ARPT PTCLDY    70  61  73 E3        29.72R
PIERRE         CLEAR     77  62  59 SE12      29.69S
CUSTER         PTCLDY    66  46  48 CALM      29.89S
ELLSWORTH AFB  MOCLDY    72  64  76 SE8       29.71F
PHILIP         MOCLDY    75  65  70 SE12      29.68F
PINE RIDGE     CLOUDY    79  49  34 S18G25    29.73S
SPEARFISH      FAIR      72  48  43 S12       29.75F
WINNER         FAIR      74  63  68 SE9       29.75R
$$

SDZ004>011-016>023-039-040-270600-
NORTHEAST SOUTH DAKOTA

CITY           SKY/WX    TMP DP  RH WIND       PRES   REMARKS
ABERDEEN       CLEAR     75  54  47 E7        29.74S
WATERTOWN      CLEAR     72  55  55 CALM      29.78S
BROOKINGS      CLEAR     71  55  56 CALM      29.79S
SISSETON         N/A     68  53  58 CALM      29.74S
$$

SDZ017-020-022-023-036>040-048>070-270600-
SOUTHEAST SOUTH DAKOTA

CITY           SKY/WX    TMP DP  RH WIND       PRES   REMARKS
SIOUX FALLS    CLEAR     70  61  73 CALM      29.78S
HURON          CLEAR     76  58  53 SE9       29.74S
CHAMBERLAIN    CLEAR     75  62  64 SE9       29.74S
MITCHELL       CLEAR     74  59  59 SE6       29.75S
YANKTON        CLEAR     77  58  51 CALM      29.77S
$$

ABBREVIATIONS USED IN REMARKS
   TC - TEMPERATURE IN CELSIUS
  WCI - WIND CHILL INDEX
   HX - HEAT INDEX
  VSB - VISIBILITY





USA.gov is the U.S. government's official web portal to all federal, state and local government web resources and services.